"2009-04-28 00:00:30",838403,4.627,127.3,8.4,1.344,4.483,101.2476,2.482,3.687,71.45,0,109.8,13.48,3.24,89.3
"2009-04-28 00:01:00",838404,4.568,121,7.748,1.173,4.844,101.2509,2.491,3.573,71.51,0,109.8,13.48,3.25,83.0
"2009-04-28 00:01:30",838405,4.337,122.4,8.24,1.284,4.932,101.2529,2.496,3.682,71.77,0,109.8,13.48,3.26,84.4
"2009-04-28 00:02:00",838406,4.325,118.4,9.95,1.379,5.134,101.2524,2.495,3.626,71.58,0,109.8,13.48,3.26,80.4
"2009-04-28 00:02:30",838407,5.239,119.8,10.54,1.154,6.545,101.2445,2.475,3.662,71.42,0,109.8,13.48,3.24,81.8
"2009-04-28 00:03:00",838408,4.748,132.1,6.474,1.076,6.331,101.2374,2.457,3.71,71.72,0,109.8,13.48,3.22,94.1
"2009-04-28 00:03:30",838409,3.746,123.8,6.179,0.952,4.024,101.2264,2.428,3.545,71.71,0,109.8,13.48,3.19,85.8
"2009-04-28 00:04:00",838410,4.965,135.7,7.02,1.188,5.658,101.2213,2.416,3.623,71.87,0,109.8,13.48,3.18,97.7
"2009-04-28 00:04:30",838411,4.221,135.8,6.663,1.272,5.004,101.2207,2.414,3.594,71.95,0,109.8,13.48,3.17,97.8
"2009-04-28 00:05:00",838412,4.138,122.6,10.95,1.35,4.772,101.2207,2.414,3.6,72.02,0,109.8,13.49,3.17,84.6
"2009-04-28 00:05:30",838413,4.625,128.2,10.78,1.228,5.711,101.2207,2.414,3.671,72.25,0,109.8,13.49,3.17,90.2
"2009-04-28 00:06:00",838414,5.167,117.8,6.28,1.203,6.442,101.2193,2.41,3.657,72.46,0,109.8,13.49,3.17,79.8
"2009-04-28 00:06:30",838415,4.501,118.5,6.34,1.309,5.205,101.2131,2.395,3.47,72.7,0,109.8,13.49,3.15,80.5
"2009-04-28 00:07:00",838416,3.693,117.6,4.75,1.139,4.325,101.2075,2.38,3.596,73.13,0,109.8,13.49,3.14,79.6
"2009-04-28 00:07:30",838417,3.815,124.1,6.646,1.125,4.4,101.2004,2.362,3.563,73.39,0,109.8,13.49,3.12,86.1
"2009-04-28 00:08:00",838418,3.762,128.9,6.178,1.333,5.176,101.1902,2.336,3.544,73.68,0,109.8,13.49,3.10,90.9
"2009-04-28 00:08:30",838419,4.2,129.3,9.1,1.217,6.131,101.1871,2.328,3.653,73.96,0,109.8,13.49,3.09,91.3
"2009-04-28 00:09:00",838420,4.323,127.5,8.85,1.276,5.426,101.1868,2.328,3.64,74.01,0,109.8,13.49,3.09,89.5
"2009-04-28 00:09:30",838421,4.096,115.5,7.378,1.109,4.47,101.1868,2.328,3.561,73.87,0,109.8,13.49,3.09,77.5
"2009-04-28 00:10:00",838422,4,115.8,8.2,1.224,5.049,101.1868,2.328,3.519,73.76,0,109.8,13.49,3.09,77.8
"2009-04-28 00:10:30",838423,4.18,119.5,11.64,1.227,5.985,101.1868,2.328,3.594,73.83,0,109.8,13.48,3.09,81.5
"2009-04-28 00:11:00",838424,3.236,130.9,7.878,1.193,3.947,101.1868,2.328,3.449,73.68,0,109.8,13.48,3.09,92.9
"2009-04-28 00:11:30",838425,3.526,136,4.716,0.892,3.305,101.1866,2.327,3.42,73.6,0,109.8,13.48,3.09,98.0
"2009-04-28 00:12:00",838426,4.927,147.4,5.157,1.205,6.259,101.1837,2.32,3.607,73.74,0,109.8,13.48,3.08,109.4
"2009-04-28 00:12:30",838427,4.261,143.2,7.49,1.136,5.737,101.1803,2.311,3.597,73.86,0,109.8,13.49,3.07,105.2
"2009-04-28 00:13:00",838428,4.047,140.8,8.7,1.309,5.724,101.1772,2.303,3.587,73.9,0,109.8,13.49,3.06,102.8
"2009-04-28 00:13:30",838429,4.47,145,8.94,1.208,6.007,101.173,2.292,3.561,73.84,0,109.8,13.49,3.05,107.0
"2009-04-28 00:14:00",838430,4.053,141.7,5.928,1.204,3.342,101.1606,2.26,3.349,73.48,0,109.8,13.49,3.02,103.7
"2009-04-28 00:14:30",838431,3.923,141.8,4.796,0.985,4.243,101.156,2.249,3.484,73.43,0,109.8,13.5,3.01,103.8
"2009-04-28 00:15:00",838432,5.032,143.3,7.168,1.083,6.674,101.1535,2.242,3.558,73.39,0,109.8,13.5,3.00,105.3
"2009-04-28 00:15:30",838433,4.748,139.9,6.529,1.14,6.526,101.1549,2.246,3.557,73.46,0,109.8,13.5,3.01,101.9
"2009-04-28 00:16:00",838434,5.052,146.6,7.061,1.219,6.775,101.1575,2.253,3.613,73.59,0,109.8,13.5,3.01,108.6
"2009-04-28 00:16:30",838435,4.61,136.6,7.528,1.317,5.494,101.1584,2.255,3.442,73.53,0,109.8,13.5,3.01,98.6
"2009-04-28 00:17:00",838436,3.041,127,6.709,0.988,3.74,101.1641,2.269,3.421,73.59,0,109.8,13.5,3.03,89.0
"2009-04-28 00:17:30",838437,3.441,136.6,8.36,1.446,4.715,101.1655,2.273,3.469,73.62,0,109.8,13.5,3.03,98.6
"2009-04-28 00:18:00",838438,4.32,136.5,6.587,1.175,4.199,101.1692,2.283,3.41,73.55,0,109.8,13.5,3.04,98.5
"2009-04-28 00:18:30",838439,5.215,143.4,6.207,1.11,6.473,101.1738,2.294,3.542,73.64,0,109.8,13.5,3.05,105.4
"2009-04-28 00:19:00",838440,5.54,150.7,5.51,0.938,7.034,101.1775,2.304,3.528,73.6,0,109.8,13.5,3.06,112.7
"2009-04-28 00:19:30",838441,4.599,141.8,6.284,1.205,5.962,101.177,2.302,3.544,73.66,0,109.8,13.5,3.06,103.8
"2009-04-28 00:20:00",838442,4.509,140.5,8.26,1.158,5.466,101.1742,2.295,3.436,73.52,0,109.8,13.5,3.06,102.5
"2009-04-28 00:20:30",838443,3.694,131.7,5.662,1.087,4.901,101.1728,2.292,3.445,73.55,0,109.8,13.5,3.05,93.7
"2009-04-28 00:21:00",838444,3.12,123.6,5.154,0.889,3.254,101.1742,2.295,3.291,73.56,0,109.8,13.5,3.06,85.6
"2009-04-28 00:21:30",838445,3.809,137.8,8.6,1.195,5.494,101.172,2.29,3.537,73.92,0,109.8,13.5,3.05,99.8
"2009-04-28 00:22:00",838446,5.26,139.5,5.507,0.867,7.308,101.1691,2.282,3.553,74,0,109.8,13.5,3.04,101.5
"2009-04-28 00:22:30",838447,5.025,126.7,9.12,1.058,6.705,101.1643,2.27,3.468,73.96,0,109.8,13.5,3.03,88.7
"2009-04-28 00:23:00",838448,4.17,119.9,7.869,1.16,5.495,101.1615,2.263,3.458,74.09,0,109.8,13.5,3.02,81.9
"2009-04-28 00:23:30",838449,4.182,120,6.166,1.417,4.79,101.157,2.251,3.425,74.26,0,109.8,13.5,3.01,82.0
"2009-04-28 00:24:00",838450,3.598,122.6,4.703,1.05,3.657,101.1533,2.242,3.281,74.19,0,109.8,13.51,3.00,84.6
"2009-04-28 00:24:30",838451,4.143,125.3,6.835,1.043,5.776,101.1539,2.243,3.436,74.38,0,109.8,13.51,3.00,87.3
"2009-04-28 00:25:00",838452,4.004,124,6.753,1.141,6.272,101.1547,2.246,3.507,74.58,0,109.8,13.51,3.01,86.0
"2009-04-28 00:25:30",838453,3.57,132.2,6.79,1.206,5.462,101.1536,2.243,3.392,74.65,0,109.8,13.5,3.00,94.2
"2009-04-28 00:26:00",838454,3.526,138.8,5.994,1.41,5.191,101.1539,2.243,3.507,74.95,0,109.7,13.5,3.00,100.8
"2009-04-28 00:26:30",838455,3.519,135,4.313,0.897,3.259,101.1536,2.243,3.34,74.8,0,109.7,13.5,3.00,97.0
"2009-04-28 00:27:00",838456,4.618,138.5,7.124,1.277,5.782,101.1533,2.242,3.442,74.82,0,109.7,13.5,3.00,100.5
"2009-04-28 00:27:30",838457,4.741,141.5,6.866,1.172,6.403,101.1533,2.242,3.502,74.8,0,109.7,13.5,3.00,103.5
"2009-04-28 00:28:00",838458,5.712,149.7,7.414,1.023,6.81,101.1533,2.242,3.499,74.74,0,109.7,13.5,3.00,111.7
"2009-04-28 00:28:30",838459,5.421,146.7,9.82,1.23,5.635,101.1533,2.242,3.531,74.72,0,109.7,13.5,3.00,108.7
"2009-04-28 00:29:00",838460,5.848,142.9,5.304,1.126,6.643,101.1533,2.242,3.514,74.68,0,109.7,13.5,3.00,104.9
"2009-04-28 00:29:30",838461,4.881,144,7.786,1.265,5.889,101.1533,2.242,3.478,74.69,0,109.7,13.5,3.00,106.0
"2009-04-28 00:30:00",838462,4.065,138.9,8.4,1.228,4.802,101.1533,2.242,3.385,74.66,0,109.7,13.5,3.00,100.9
"2009-04-28 00:30:30",838463,5.272,141.6,5.621,1.027,6.568,101.1533,2.242,3.508,74.78,0,109.7,13.51,3.00,103.6
"2009-04-28 00:31:00",838464,5.45,143.7,5.673,1.076,6.819,101.1519,2.238,3.465,74.66,0,109.7,13.51,3.00,105.7
"2009-04-28 00:31:30",838465,5.177,143.2,6.6,1.04,6.701,101.1485,2.23,3.52,74.64,0,109.7,13.51,2.99,105.2
"2009-04-28 00:32:00",838466,5.351,146.3,6.492,0.965,6.777,101.1406,2.21,3.492,74.61,0,109.7,13.51,2.97,108.3
"2009-04-28 00:32:30",838467,4.969,151.3,10.18,1.054,5.993,101.1304,2.184,3.4,74.55,0,109.7,13.51,2.94,113.3
"2009-04-28 00:33:00",838468,4.596,151.6,8.82,1.223,4.976,101.1273,2.176,3.324,74.53,0,109.7,13.51,2.94,113.6
"2009-04-28 00:33:30",838469,5.072,146.6,6.809,1.271,5.785,101.1225,2.163,3.43,74.62,0,109.7,13.51,2.92,108.6
"2009-04-28 00:34:00",838470,5.719,147,7.619,1.099,6.903,101.1197,2.156,3.477,74.73,0,109.7,13.51,2.92,109.0
"2009-04-28 00:34:30",838471,4.725,149.6,9.71,1.124,6.705,101.12,2.157,3.533,74.83,0,109.7,13.51,2.92,111.6
"2009-04-28 00:35:00",838472,5.535,136.1,12.03,1.188,6.618,101.1197,2.156,3.491,74.86,0,109.7,13.51,2.92,98.1
"2009-04-28 00:35:30",838473,5.089,141.5,7.755,0.985,4.747,101.1208,2.159,3.442,74.89,0,109.7,13.51,2.92,103.5
"2009-04-28 00:36:00",838474,5.631,149.9,8.04,1.237,5.59,101.1225,2.163,3.34,74.91,0,109.7,13.51,2.92,111.9
"2009-04-28 00:36:30",838475,6.179,155.5,5.716,1.132,6.827,101.1228,2.164,3.465,75.23,0,109.7,13.51,2.92,117.5
"2009-04-28 00:37:00",838476,5.997,152.3,5.841,1.121,6.988,101.1245,2.169,3.423,75.19,0,109.7,13.51,2.93,114.3
"2009-04-28 00:37:30",838477,5.817,154.3,5.367,1.072,7.272,101.1283,2.178,3.529,75.15,0,109.7,13.51,2.94,116.3
"2009-04-28 00:38:00",838478,4.912,154.9,7.006,1.118,6.602,101.1303,2.183,3.413,74.92,0,109.7,13.51,2.94,116.9
"2009-04-28 00:38:30",838479,3.438,145.1,2.732,0.252,3.306,101.13,2.182,3.328,74.95,0,109.8,13.55,2.94,107.1
"2009-04-28 00:39:00",838480,4.75,146.7,6.602,1.16,4.668,101.1346,2.194,3.376,75,0,109.7,13.51,2.95,108.7
"2009-04-28 00:39:30",838481,5.088,145,5.913,1.124,5.734,101.1354,2.196,3.402,75.05,0,109.7,13.52,2.96,107.0
"2009-04-28 00:40:00",838482,5.388,145,7.458,1.245,6.61,101.1368,2.2,3.401,75.16,0,109.7,13.51,2.96,107.0
"2009-04-28 00:40:30",838483,6.007,151.8,4.975,0.794,7.869,101.1366,2.199,3.545,75.45,0,109.7,13.52,2.96,113.8
"2009-04-28 00:41:00",838484,5.097,150.6,6.502,1.083,7.111,101.1374,2.201,3.466,75.52,0,109.7,13.52,2.96,112.6
"2009-04-28 00:41:30",838485,4.39,140.9,10.47,1.32,4.929,101.1383,2.204,3.329,75.34,0,109.7,13.51,2.96,102.9
"2009-04-28 00:42:00",838486,4.763,140.7,9.85,1.246,4.54,101.1388,2.205,3.378,75.27,0,109.7,13.51,2.96,102.7
"2009-04-28 00:42:30",838487,4.465,143,5.84,1.031,3.821,101.1417,2.212,3.28,75.32,0,109.7,13.51,2.97,105.0
"2009-04-28 00:43:00",838488,5.866,151,5.238,1.012,7.155,101.1414,2.212,3.508,75.68,0,109.7,13.51,2.97,113.0
"2009-04-28 00:43:30",838489,6.149,154,7.248,0.727,8,101.1454,2.222,3.527,75.77,0,109.7,13.51,2.98,116.0
"2009-04-28 00:44:00",838490,6.297,145,4.628,0.828,7.508,101.1437,2.217,3.473,75.74,0,109.7,13.51,2.98,107.0
"2009-04-28 00:44:30",838491,4.915,139.5,5.645,1.238,4.665,101.1443,2.219,3.303,75.68,0,109.7,13.51,2.98,101.5
"2009-04-28 00:45:00",838492,4.97,146.9,8.61,1.178,5.054,101.1457,2.223,3.367,75.83,0,109.7,13.51,2.98,108.9
"2009-04-28 00:45:30",838493,4.195,135.9,8.94,0.869,4.078,101.1463,2.224,3.277,75.77,0,109.7,13.51,2.98,97.9
"2009-04-28 00:46:00",838494,5.679,141.7,8.36,0.947,7.716,101.1463,2.224,3.518,76.06,0,109.7,13.51,2.98,103.7
"2009-04-28 00:46:30",838495,5.5,149.7,4.704,0.712,7.962,101.1471,2.226,3.554,76.1,0,109.7,13.51,2.99,111.7
"2009-04-28 00:47:00",838496,5.44,152.8,4.723,0.71,7.809,101.1474,2.227,3.44,75.99,0,109.7,13.52,2.99,114.8
"2009-04-28 00:47:30",838497,3.75,138.4,6.954,0.936,3.517,101.1509,2.236,3.315,76.03,0,109.7,13.52,3.00,100.4
"2009-04-28 00:48:00",838498,5.263,146.1,6.472,1.254,4.82,101.152,2.239,3.271,76.1,0,109.8,13.52,3.00,108.1
"2009-04-28 00:48:30",838499,4.674,143.7,4.284,0.956,4.452,101.1526,2.24,3.404,76.36,0,109.7,13.52,3.00,105.7
"2009-04-28 00:49:00",838500,6.239,145.4,4.794,0.937,7.497,101.1529,2.241,3.506,76.51,0,109.7,13.53,3.00,107.4
"2009-04-28 00:49:30",838501,5.827,146.1,5.138,1.083,7.923,101.1529,2.241,3.524,76.55,0,109.7,13.53,3.00,108.1
"2009-04-28 00:50:00",838502,5.966,145.6,4.729,0.718,7.586,101.1531,2.242,3.552,76.58,0,109.7,13.52,3.00,107.6
"2009-04-28 00:50:30",838503,5.268,134.6,8.46,1.262,5.786,101.1531,2.242,3.453,76.5,0,109.7,13.53,3.00,96.6
"2009-04-28 00:51:00",838504,5.244,135.9,4.811,1.111,4.557,101.1532,2.242,3.276,76.36,0,109.7,13.53,3.00,97.9
"2009-04-28 00:51:30",838505,4.096,128.3,1.364,0.079,3.291,101.1515,2.237,3.306,76.42,0,109.7,13.56,3.00,90.3
"2009-04-28 00:52:00",838506,6.031,135.9,6.064,1.112,7.428,101.1495,2.232,3.496,76.67,0,109.7,13.53,2.99,97.9
"2009-04-28 00:52:30",838507,5.992,141.3,5.227,0.924,8.07,101.1455,2.222,3.534,76.79,0,109.7,13.53,2.98,103.3
"2009-04-28 00:53:00",838508,6.371,146.3,5.449,0.709,8.16,101.1396,2.207,3.534,76.95,0,109.7,13.53,2.97,108.3
"2009-04-28 00:53:30",838509,6.217,154.5,4.105,0.645,7.844,101.1308,2.185,3.496,77,0,109.7,13.53,2.94,116.5
"2009-04-28 00:54:00",838510,5.394,147.2,5.013,1.256,5.429,101.1317,2.187,3.456,77.08,0,109.7,13.53,2.95,109.2
"2009-04-28 00:54:30",838511,4.427,145.7,1.217,0.249,3.067,101.1297,2.182,3.239,76.99,0,109.7,13.53,2.94,107.7
"2009-04-28 00:55:00",838512,5.436,149.5,5.394,1.235,5.892,101.1288,2.18,3.484,77.31,0,109.7,13.53,2.94,111.5
"2009-04-28 00:55:30",838513,6.273,155,5.675,1.073,7.389,101.1249,2.169,3.463,77.33,0,109.7,13.53,2.93,117.0
"2009-04-28 00:56:00",838514,6.149,161.5,4.693,0.705,8.07,101.124,2.167,3.527,77.46,0,109.7,13.53,2.93,123.5
"2009-04-28 00:56:30",838515,5.48,156,5.36,1.17,6.774,101.1203,2.158,3.48,77.51,0,109.7,13.53,2.92,118.0
"2009-04-28 00:57:00",838516,5.137,148.9,6.828,1.068,4.913,101.122,2.162,3.366,77.4,0,109.7,13.53,2.92,110.9
"2009-04-28 00:57:30",838517,5.277,148.5,6.929,1.087,4.918,101.1206,2.159,3.381,77.4,0,109.7,13.53,2.92,110.5
"2009-04-28 00:58:00",838518,5.523,152.4,5.81,1.22,5.792,101.1203,2.158,3.45,77.53,0,109.7,13.52,2.92,114.4
"2009-04-28 00:58:30",838519,5.872,155.9,6.716,1.151,6.6,101.1203,2.158,3.435,77.52,0,109.7,13.53,2.92,117.9
"2009-04-28 00:59:00",838520,5.678,152.2,5.087,1.216,6.624,101.1198,2.156,3.466,77.61,0,109.7,13.53,2.92,114.2
"2009-04-28 00:59:30",838521,5.748,155.3,5.08,1.222,6.941,101.1198,2.156,3.427,77.61,0,109.7,13.52,2.92,117.3
"2009-04-28 01:00:00",838522,4.48,149,6.209,1.112,5.071,101.1201,2.157,3.461,77.7,0,109.7,13.52,2.92,111.0
"2009-04-28 01:00:30",838523,4.758,146.8,5.591,1.163,5.187,101.1198,2.156,3.418,77.7,0,109.7,13.52,2.92,108.8
"2009-04-28 01:01:00",838524,5.692,148.3,5.379,1.195,5.898,101.1198,2.156,3.45,77.8,0,109.7,13.52,2.92,110.3
"2009-04-28 01:01:30",838525,6.116,158.1,5.325,1.176,6.902,101.1204,2.158,3.434,77.91,0,109.7,13.53,2.92,120.1
"2009-04-28 01:02:00",838526,5.955,158.6,5.975,1.053,6.566,101.1201,2.157,3.407,77.91,0,109.7,13.53,2.92,120.6
"2009-04-28 01:02:30",838527,5.527,152.5,5.745,1.269,6.241,101.1215,2.161,3.47,78.05,0,109.7,13.53,2.92,114.5
"2009-04-28 01:03:00",838528,5.105,145.3,6.299,1.127,5.917,101.1218,2.162,3.353,78.03,0,109.7,13.53,2.92,107.3
"2009-04-28 01:03:30",838529,5.421,147.4,6.194,1.188,6.312,101.1218,2.162,3.406,78.18,0,109.7,13.53,2.92,109.4
"2009-04-28 01:04:00",838530,4.866,144.1,6.096,1.167,6.387,101.1215,2.161,3.487,78.32,0,109.7,13.53,2.92,106.1
"2009-04-28 01:04:30",838531,5.345,141.8,6.853,1.098,5.516,101.1246,2.169,3.281,78.2,0,109.7,13.53,2.93,103.8
"2009-04-28 01:05:00",838532,5.514,142.5,6.436,1.213,6.089,101.1255,2.171,3.435,78.43,0,109.7,13.53,2.93,104.5
"2009-04-28 01:05:30",838533,5.707,145.3,6.401,1.186,6.368,101.1246,2.169,3.469,78.52,0,109.7,13.53,2.93,107.3
"2009-04-28 01:06:00",838534,5.945,148.1,6.086,1.088,7.239,101.1292,2.181,3.491,78.52,0,109.7,13.53,2.94,110.1
"2009-04-28 01:06:30",838535,5.831,140.8,7.059,1.168,6.521,101.1269,2.175,3.468,78.45,0,109.7,13.53,2.93,102.8
"2009-04-28 01:07:00",838536,6.114,141.8,6.213,1.183,6.697,101.1289,2.18,3.51,78.56,0,109.7,13.53,2.94,103.8
"2009-04-28 01:07:30",838537,5.321,136.7,4.7,1.136,5.384,101.1289,2.18,3.428,78.64,0,109.7,13.53,2.94,98.7
"2009-04-28 01:08:00",838538,6.507,139.4,5.224,1.013,6.552,101.1289,2.18,3.414,78.79,0,109.7,13.53,2.94,101.4
"2009-04-28 01:08:30",838539,6.147,136.7,5.922,1.205,6.348,101.1312,2.186,3.483,79.07,0,109.7,13.53,2.95,98.7
"2009-04-28 01:09:00",838540,6.633,139.2,3.315,0.966,7.76,101.1324,2.189,3.588,79.29,0,109.7,13.53,2.95,101.2
"2009-04-28 01:09:30",838541,6.967,134.4,5.697,0.974,7.056,101.1341,2.193,3.486,79.42,0,109.7,13.53,2.95,96.4
"2009-04-28 01:10:00",838542,6.575,137,5.731,1.173,6.572,101.1341,2.193,3.461,79.61,0,109.7,13.53,2.95,99.0
"2009-04-28 01:10:30",838543,6.16,134.4,5.725,1.155,5.131,101.1378,2.202,3.379,79.64,0,109.7,13.54,2.96,96.4
"2009-04-28 01:11:00",838544,6.181,136.6,5.64,1.115,5.968,101.1375,2.202,3.433,79.81,0,109.7,13.53,2.96,98.6
"2009-04-28 01:11:30",838545,6.472,142.5,5.182,1.13,7.321,101.1381,2.203,3.566,80.1,0,109.7,13.53,2.96,104.5
"2009-04-28 01:12:00",838546,7.022,143.1,4.878,0.653,7.98,101.1387,2.205,3.577,80.4,0,109.7,13.54,2.96,105.1
"2009-04-28 01:12:30",838547,7.001,144.1,4.343,0.892,7.61,101.1392,2.206,3.534,80.6,0,109.7,13.54,2.97,106.1
"2009-04-28 01:13:00",838548,6.822,147.8,4.656,0.959,7.389,101.1375,2.202,3.523,80.7,0,109.7,13.53,2.96,109.8
"2009-04-28 01:13:30",838549,5.233,144.3,3.488,1.036,4.109,101.1338,2.192,3.293,80.6,0,109.7,13.54,2.95,106.3
"2009-04-28 01:14:00",838550,6.229,148.7,6.68,1.083,6.573,101.135,2.195,3.373,80.7,0,109.7,13.54,2.95,110.7
"2009-04-28 01:14:30",838551,5.916,147.1,6.648,1.24,5.705,101.1322,2.188,3.423,80.8,0,109.7,13.53,2.95,109.1
"2009-04-28 01:15:00",838552,6.955,150,5.752,1.018,7.766,101.126,2.172,3.499,80.8,0,109.7,13.53,2.93,112.0
"2009-04-28 01:15:30",838553,7.077,148,5.545,0.861,7.72,101.1254,2.171,3.513,80.9,0,109.7,13.53,2.93,110.0
"2009-04-28 01:16:00",838554,7.168,153.1,3.817,0.623,7.998,101.1266,2.174,3.503,81,0,109.7,13.53,2.93,115.1
"2009-04-28 01:16:30",838555,7.129,153.5,3.894,0.606,7.506,101.1263,2.173,3.513,81.1,0,109.7,13.53,2.93,115.5
"2009-04-28 01:17:00",838556,6.727,150.7,4.773,1.078,6.507,101.1212,2.16,3.482,81.1,0,109.7,13.53,2.92,112.7
"2009-04-28 01:17:30",838557,5.901,141.3,5.11,1.114,4.381,101.1144,2.143,3.326,81,0,109.7,13.53,2.90,103.3
"2009-04-28 01:18:00",838558,5.344,138.5,3.391,0.526,3.24,101.113,2.139,3.286,81,0,109.7,13.53,2.90,100.5
"2009-04-28 01:18:30",838559,7.795,149.8,5.919,0.811,7.771,101.113,2.139,3.413,81.1,0,109.7,13.53,2.90,111.8
"2009-04-28 01:19:00",838560,8.02,150.4,3.528,0.764,8.6,101.1136,2.141,3.487,81.2,0,109.7,13.53,2.90,112.4
"2009-04-28 01:19:30",838561,7.91,153.9,5.571,0.702,8.65,101.1136,2.141,3.496,81.2,0,109.7,13.54,2.90,115.9
"2009-04-28 01:20:00",838562,7.599,155.6,3.934,0.544,7.946,101.1139,2.141,3.465,81.3,0,109.7,13.53,2.90,117.6
"2009-04-28 01:20:30",838563,7.485,152.6,2.402,0.839,7.512,101.1133,2.14,3.469,81.3,0,109.7,13.54,2.90,114.6
"2009-04-28 01:21:00",838564,7.804,154.7,4.243,0.643,7.506,101.1122,2.137,3.478,81.3,0,109.7,13.53,2.90,116.7
"2009-04-28 01:21:30",838565,7.558,152.6,3.456,0.763,7.01,101.1139,2.141,3.447,81.4,0,109.7,13.53,2.90,114.6
"2009-04-28 01:22:00",838566,6.149,139.8,4.345,0.711,3.357,101.112,2.136,3.222,81.2,0,109.7,13.54,2.90,101.8
"2009-04-28 01:22:30",838567,6.808,140.7,6.077,1.054,5.248,101.1094,2.13,3.267,81.4,0,109.7,13.54,2.89,102.7
"2009-04-28 01:23:00",838568,7.191,141.1,7.496,1.15,6.123,101.1054,2.12,3.347,81.6,0,109.7,13.54,2.88,103.1
"2009-04-28 01:23:30",838569,8.21,146,3.877,0.689,8.16,101.0992,2.104,3.447,81.8,0,109.7,13.54,2.86,108.0
"2009-04-28 01:24:00",838570,8.41,148.2,3.318,0.725,8.51,101.0902,2.081,3.453,81.8,0,109.7,13.54,2.84,110.2
"2009-04-28 01:24:30",838571,8.36,149.3,3.33,0.644,7.979,101.0854,2.069,3.429,81.9,0,109.7,13.54,2.83,111.3
"2009-04-28 01:25:00",838572,8.05,153.7,4.449,0.771,7.888,101.0859,2.07,3.431,81.9,0,109.7,13.54,2.83,115.7
"2009-04-28 01:25:30",838573,8.08,153.2,4.076,0.671,7.68,101.0859,2.07,3.434,82,0,109.7,13.54,2.83,115.2
"2009-04-28 01:26:00",838574,8.04,152.4,4.365,0.584,7.461,101.0856,2.069,3.424,82.1,0,109.7,13.54,2.83,114.4
"2009-04-28 01:26:30",838575,8.01,153.8,3.429,0.691,7.01,101.0862,2.071,3.405,82.1,0,109.7,13.54,2.83,115.8
"2009-04-28 01:27:00",838576,8.24,154.4,4.113,0.634,7.302,101.0859,2.07,3.424,82.2,0,109.7,13.53,2.83,116.4
"2009-04-28 01:27:30",838577,8,155.4,3.812,0.585,6.924,101.0859,2.07,3.391,82.2,0,109.7,13.54,2.83,117.4
"2009-04-28 01:28:00",838578,7.844,157.4,3.798,0.517,6.968,101.0862,2.071,3.385,82.3,0,109.7,13.53,2.83,119.4
"2009-04-28 01:28:30",838579,6.893,156.2,5.272,1.191,5.395,101.0862,2.071,3.339,82.3,0,109.7,13.54,2.83,118.2
"2009-04-28 01:29:00",838580,5.853,150.6,3.876,0.732,3.399,101.0862,2.071,3.168,82.1,0,109.7,13.54,2.83,112.6
"2009-04-28 01:29:30",838581,7.253,155.4,6.517,1.088,6.177,101.0859,2.07,3.267,82.3,0,109.7,13.54,2.83,117.4
"2009-04-28 01:30:00",838582,7.563,159.9,5.262,0.987,7.477,101.0857,2.069,3.377,82.4,0,109.7,13.54,2.83,121.9
"2009-04-28 01:30:30",838583,7.781,159.6,4.43,0.526,8.21,101.0831,2.063,3.388,82.4,0,109.7,13.54,2.82,121.6
"2009-04-28 01:31:00",838584,7.656,160.3,4.455,0.732,7.944,101.0789,2.052,3.39,82.5,0,109.7,13.54,2.81,122.3
"2009-04-28 01:31:30",838585,7.752,156.6,5.175,0.851,7.276,101.0777,2.049,3.329,82.4,0,109.7,13.53,2.81,118.6
"2009-04-28 01:32:00",838586,6.878,150.3,7.458,1.317,4.825,101.0724,2.035,3.218,82.3,0,109.7,13.53,2.79,112.3
"2009-04-28 01:32:30",838587,6.355,148.2,4.635,1.27,4.582,101.0661,2.02,3.175,82.3,0,109.7,13.53,2.78,110.2
"2009-04-28 01:33:00",838588,7.224,154.5,6.268,1.263,6.694,101.0644,2.015,3.317,82.5,0,109.7,13.53,2.77,116.5
"2009-04-28 01:33:30",838589,7.481,155.1,5.719,1.128,6.893,101.0658,2.019,3.302,82.5,0,109.7,13.53,2.78,117.1
"2009-04-28 01:34:00",838590,7.861,157.9,3.971,0.818,7.45,101.0653,2.017,3.348,82.6,0,109.7,13.54,2.78,119.9
"2009-04-28 01:34:30",838591,7.973,154.7,6.811,1.075,6.802,101.0658,2.019,3.32,82.6,0,109.7,13.53,2.78,116.7
"2009-04-28 01:35:00",838592,7.763,155.6,6.481,1.013,7.075,101.0664,2.02,3.324,82.6,0,109.7,13.54,2.78,117.6
"2009-04-28 01:35:30",838593,7.67,152.9,5.27,1.245,6.81,101.0644,2.015,3.316,82.7,0,109.7,13.54,2.77,114.9
"2009-04-28 01:36:00",838594,8.29,154.9,3.602,0.766,7.408,101.0661,2.02,3.307,82.8,0,109.7,13.54,2.78,116.9
"2009-04-28 01:36:30",838595,8.6,155.8,4.905,1.124,6.748,101.0653,2.017,3.316,82.8,0,109.7,13.54,2.78,117.8
"2009-04-28 01:37:00",838596,8.3,156.7,5.403,1.13,6.907,101.0622,2.009,3.258,82.9,0,109.7,13.54,2.77,118.7
"2009-04-28 01:37:30",838597,8.4,155.8,5.512,0.996,7.123,101.0568,1.996,3.33,82.9,0,109.7,13.54,2.75,117.8
"2009-04-28 01:38:00",838598,8.22,156.5,5.524,1.138,7.164,101.0548,1.991,3.3,82.9,0,109.7,13.54,2.75,118.5
"2009-04-28 01:38:30",838599,8.49,155.9,4.132,0.646,7.737,101.0554,1.992,3.278,83,0,109.7,13.54,2.75,117.9
"2009-04-28 01:39:00",838600,8.64,151.5,3.676,0.766,7.638,101.0557,1.993,3.358,83.2,0,109.7,13.54,2.75,113.5
"2009-04-28 01:39:30",838601,8.94,151.5,4.091,0.548,7.751,101.0545,1.99,3.337,83.3,0,109.7,13.54,2.75,113.5
"2009-04-28 01:40:00",838602,8.7,148.3,5.68,1.177,6.901,101.0543,1.989,3.337,83.5,0,109.6,13.54,2.75,110.3
"2009-04-28 01:40:30",838603,9.25,147.8,7.163,0.865,7.185,101.0528,1.986,3.291,83.5,0,109.7,13.54,2.74,109.8
"2009-04-28 01:41:00",838604,8.53,151.5,5.484,1.088,6.939,101.0523,1.984,3.296,83.6,0,109.7,13.54,2.74,113.5
"2009-04-28 01:41:30",838605,9.21,151.5,5.961,0.978,6.997,101.0523,1.984,3.238,83.7,0,109.7,13.54,2.74,113.5
"2009-04-28 01:42:00",838606,8.4,151.5,5.908,1.245,6.498,101.0523,1.984,3.312,83.8,0,109.6,13.54,2.74,113.5
"2009-04-28 01:42:30",838607,8.94,157.6,5.02,0.846,7.918,101.0523,1.984,3.328,83.9,0,109.7,13.54,2.74,119.6
"2009-04-28 01:43:00",838608,8.99,150.1,5.144,0.734,7.907,101.0523,1.984,3.322,84,0,109.7,13.54,2.74,112.1
"2009-04-28 01:43:30",838609,8.54,154.6,3.698,0.697,7.764,101.0509,1.981,3.311,84.1,0,109.7,13.54,2.74,116.6
"2009-04-28 01:44:00",838610,8.37,153.4,4.538,0.685,7.62,101.0486,1.975,3.323,84.2,0,109.6,13.54,2.73,115.4
"2009-04-28 01:44:30",838611,8.15,155.8,5.179,0.768,7.437,101.0387,1.95,3.312,84.3,0,109.6,13.54,2.71,117.8
"2009-04-28 01:45:00",838612,8.13,154.2,4.117,0.631,7.463,101.0254,1.916,3.311,84.4,0,109.7,13.54,2.67,116.2
"2009-04-28 01:45:30",838613,7.657,155,6.36,0.556,7.192,101.0189,1.899,3.299,84.5,0,109.6,13.54,2.66,117.0
"2009-04-28 01:46:00",838614,7.852,151.7,4.619,0.812,6.863,101.0183,1.898,3.307,84.6,0,109.7,13.54,2.66,113.7
"2009-04-28 01:46:30",838615,7.3,147.2,5.962,0.731,6.909,101.0183,1.898,3.293,84.7,0,109.6,13.54,2.66,109.2
"2009-04-28 01:47:00",838616,6.898,153.5,5.486,0.547,6.829,101.0183,1.898,3.282,84.9,0,109.6,13.54,2.66,115.5
"2009-04-28 01:47:30",838617,6.398,144,6.133,1.256,4.912,101.0183,1.898,3.1,84.8,0,109.6,13.54,2.66,106.0
"2009-04-28 01:48:00",838618,5.034,144.1,2.883,0.142,2.554,101.0183,1.898,2.976,84.8,0,109.6,13.57,2.66,106.1
"2009-04-28 01:48:30",838619,6.284,154,6.25,1.177,5.397,101.0138,1.886,3.118,85,0,109.6,13.54,2.64,116.0
"2009-04-28 01:49:00",838620,7.357,159.3,4.012,1,7.488,101.0093,1.874,3.238,85.2,0,109.6,13.54,2.63,121.3
"2009-04-28 01:49:30",838621,7.52,157.4,5.117,0.72,7.979,101.0022,1.856,3.246,85.4,0,109.6,13.54,2.61,119.4
"2009-04-28 01:50:00",838622,7.513,161,3.926,0.597,7.91,100.9932,1.833,3.251,85.5,0,109.6,13.54,2.59,123.0